Location: Moonridge Observatory
(39.2268°N, 77.7914°W)
Time: 10:36:34
(UTC-04:00)

Amateur Radio Satellites - All Passes

Search period start: 24 July 2014 10:06
Search period end: 25 July 2014 10:06
Location: Moonridge Observatory, 39.2268°N, 77.7914°W

Satellite Date Start Highest point End Downlink Frequencies (MHz)
Time Altitude Azimuth
Sapphire 24 Jul 10:22:26 10:26:22 20° 47° (NE) 10:30:18 437.095 MHz 1200 baud AX-25 AFSK
Saudisat 1A 24 Jul 10:23:22 10:27:10 27° 311° (NW) 10:30:59 436.775 MHz
Oscar 11 24 Jul 10:30:47 10:34:49 37° 98° (E) 10:38:49 145.825 FM, Beacon 2401.500 USB
HO-68 24 Jul 10:32:21 10:39:32 88° 106° (ESE) 10:46:41 435.675 MHz FM
FUNcube-1 24 Jul 10:38:35 10:41:03 15° 93° (E) 10:43:31 145.950 - 145.970 MHz USB
PCSat 24 Jul 10:55:46 11:00:48 37° 54° (NE) 11:05:47 145.825 MHz
PANSAT 24 Jul 11:15:55 11:17:12 11° 194° (SSW) 11:18:29 not established
UKube-1 24 Jul 11:16:01 11:19:56 33° 290° (WNW) 11:23:49 145.840 MHz, 145.915 MHz
Sapphire 24 Jul 12:04:53 12:10:16 65° 245° (WSW) 12:15:36 437.095 MHz 1200 baud AX-25 AFSK
Oscar 11 24 Jul 12:07:43 12:10:43 19° 293° (WNW) 12:13:43 145.825 FM, Beacon 2401.500 USB
FUNcube-1 24 Jul 12:13:44 12:17:37 39° 288° (WNW) 12:21:31 145.950 - 145.970 MHz USB
HO-68 24 Jul 12:21:51 12:26:18 18° 304° (NW) 12:30:45 435.675 MHz FM
PCSat 24 Jul 12:39:24 12:44:04 30° 251° (WSW) 12:48:42 145.825 MHz
JAS-1B 24 Jul 12:40:15 12:43:17 12° 44° (NE) 12:46:23 435.800 - 435.900 CW/SSB
Oscar 19 24 Jul 13:25:58 13:30:45 42° 70° (ENE) 13:35:33 437.125 CW, 437.150 USB
RS-15 24 Jul 13:47:18 13:57:25 41° 108° (ESE) 14:07:16 29.354 - 29.394 USB, Beacon 29.352 USB
Oscar 16 24 Jul 13:53:03 13:58:10 81° 75° (ENE) 14:03:18 437.025 USB, Beacon 2401.1428
KITSAT 1 24 Jul 13:56:24 13:59:09 12° 22° (NNE) 14:01:53 435.175 FM
TMSAT-1 24 Jul 13:57:39 13:59:26 12° 59° (ENE) 14:01:14 436.925 FM
SO-50 24 Jul 13:58:57 14:03:18 56° 118° (ESE) 14:07:44 436.795 FM
ITAMSAT 1 24 Jul 14:03:26 14:08:23 45° 71° (ENE) 14:13:21 435.822 SSB
Gurwin Techsat 1B 24 Jul 14:15:52 14:20:05 25° 66° (ENE) 14:24:17 435.225 FM
AO-27 24 Jul 14:21:00 14:26:11 68° 74° (ENE) 14:31:23 436.795 MHz FM
AO-Echo 24 Jul 14:21:54 14:27:07 69° 74° (ENE) 14:32:26 ?
JAS-1B 24 Jul 14:23:08 14:31:16 51° 66° (ENE) 14:40:29 435.800 - 435.900 CW/SSB
Uribyol 2 24 Jul 14:23:57 14:29:08 75° 74° (ENE) 14:34:20 436.500 FM
UOSAT-12 24 Jul 14:50:36 14:52:40 13° 107° (ESE) 14:54:46 437.025 FM, 437.400 FM
AO-7 24 Jul 15:05:58 15:12:23 26° 55° (NE) 15:18:48 29.400 - 29.500 MHz
Oscar 19 24 Jul 15:06:23 15:10:15 22° 266° (W) 15:14:08 437.125 CW, 437.150 USB
TMSAT-1 24 Jul 15:33:15 15:38:34 89° 260° (W) 15:43:54 436.925 FM
Oscar 16 24 Jul 15:37:07 15:38:06 11° 271° (W) 15:39:04 437.025 USB, Beacon 2401.1428
SO-50 24 Jul 15:41:06 15:44:13 18° 316° (NW) 15:47:23 436.795 FM
ITAMSAT 1 24 Jul 15:44:11 15:48:04 21° 266° (W) 15:51:57 435.822 SSB
KITSAT 1 24 Jul 15:49:54 15:57:20 38° 49° (NE) 16:04:42 435.175 FM
Gurwin Techsat 1B 24 Jul 15:54:48 15:59:47 41° 262° (W) 16:04:48 435.225 FM
RS-15 24 Jul 15:58:30 16:09:22 56° 309° (NW) 16:20:06 29.354 - 29.394 USB, Beacon 29.352 USB
AO-27 24 Jul 16:03:36 16:06:09 14° 269° (W) 16:08:43 436.795 MHz FM
AO-Echo 24 Jul 16:03:41 16:06:21 14° 270° (W) 16:09:02 ?
Uribyol 2 24 Jul 16:07:12 16:09:08 12° 270° (W) 16:11:04 436.500 FM
JAS-1B 24 Jul 16:14:05 16:21:51 40° 266° (W) 16:30:42 435.800 - 435.900 CW/SSB
Uosat F 24 Jul 16:14:54 16:19:47 53° 72° (ENE) 16:24:42 435.120 FM
UOSAT-12 24 Jul 16:27:39 16:32:13 66° 304° (WNW) 16:36:53 437.025 FM, 437.400 FM
JAS-2 24 Jul 16:36:12 16:38:41 12° 54° (NE) 16:41:07 435.800 - 435.900 CW/SSB, 435.910 FM
OPAL 24 Jul 16:49:52 16:54:38 41° 101° (E) 16:59:25 ?
AO-7 24 Jul 16:56:01 17:04:21 75° 254° (WSW) 17:12:46 29.400 - 29.500 MHz
Hamsat 24 Jul 17:08:48 17:09:51 11° 64° (ENE) 17:10:54 145.90 MHz
Saudisat 1A 24 Jul 17:11:30 17:14:54 21° 47° (NE) 17:18:17 436.775 MHz
KITSAT 1 24 Jul 17:45:12 17:52:56 52° 248° (WSW) 18:00:37 435.175 FM
Uosat F 24 Jul 17:55:42 17:58:52 17° 268° (W) 18:02:03 435.120 FM
UOSAT-12 24 Jul 18:12:11 18:13:18 11° 323° (NW) 18:14:25 437.025 FM, 437.400 FM
Oscar 10/S400 24 Jul 18:12:47 18:24:03 16° 143° (SE) 18:35:10 145.825 - 145.975 CW/USB, Beacon 145.810 USB
JAS-2 24 Jul 18:14:38 18:22:19 60° 71° (ENE) 18:29:41 435.800 - 435.900 CW/SSB, 435.910 FM
RS-15 24 Jul 18:17:10 18:24:53 21° 339° (NNW) 18:32:38 29.354 - 29.394 USB, Beacon 29.352 USB
OPAL 24 Jul 18:29:19 18:33:16 24° 296° (WNW) 18:37:14 ?
Hamsat 24 Jul 18:41:08 18:45:15 63° 259° (W) 18:49:25 145.90 MHz
Saudisat 1A 24 Jul 18:50:30 18:54:40 43° 244° (WSW) 18:58:48 436.775 MHz
AO-7 24 Jul 18:55:10 18:58:23 13° 272° (W) 19:01:37 29.400 - 29.500 MHz
STRAND 1 24 Jul 19:05:30 19:09:30 23° 94° (E) 19:13:27 ?
HO-68 24 Jul 19:18:23 19:20:03 11° 50° (NE) 19:21:42 435.675 MHz FM
SO-67 24 Jul 19:18:56 19:22:15 46° 75° (ENE) 19:25:36 435.3500 MHz FM
JAS-2 24 Jul 20:01:03 20:07:33 28° 267° (W) 20:13:56 435.800 - 435.900 CW/SSB, 435.910 FM
UKube-1 24 Jul 20:35:40 20:38:28 17° 65° (ENE) 20:41:15 145.840 MHz, 145.915 MHz
RS-15 24 Jul 20:35:47 20:43:08 19° 17° (NNE) 20:50:33 29.354 - 29.394 USB, Beacon 29.352 USB
STRAND 1 24 Jul 20:44:03 20:48:48 40° 290° (WNW) 20:53:31 ?
HO-68 24 Jul 20:59:17 21:06:17 60° 69° (ENE) 21:13:19 435.675 MHz FM
Oscar 11 24 Jul 21:25:11 21:28:46 26° 69° (ENE) 21:32:21 145.825 FM, Beacon 2401.500 USB
FUNcube-1 24 Jul 21:35:16 21:37:06 13° 64° (ENE) 21:38:56 145.950 - 145.970 MHz USB
MaSat-1 24 Jul 21:59:08 22:02:12 23° 103° (ESE) 22:05:40 437.345 MHz
UKube-1 24 Jul 22:10:09 22:14:19 43° 261° (W) 22:18:30 145.840 MHz, 145.915 MHz
SO-50 24 Jul 22:31:28 22:35:57 40° 52° (NE) 22:40:28 436.795 FM
RS-15 24 Jul 22:48:34 22:59:10 49° 48° (NE) 23:10:03 29.354 - 29.394 USB, Beacon 29.352 USB
HO-68 24 Jul 22:48:44 22:54:22 25° 266° (W) 23:00:01 435.675 MHz FM
Oscar 11 24 Jul 23:01:19 23:04:52 25° 265° (W) 23:08:27 145.825 FM, Beacon 2401.500 USB
FUNcube-1 24 Jul 23:08:42 23:13:02 58° 259° (W) 23:17:17 145.950 - 145.970 MHz USB
UOSAT-12 24 Jul 23:20:03 23:22:04 13° 39° (NE) 23:24:06 437.025 FM, 437.400 FM
Lituanica SAT-1 24 Jul 23:32:35 23:34:21 23° 136° (SE) 23:36:07 437.275 MHz beacon
MaSat-1 24 Jul 23:35:50 23:39:21 29° 305° (NW) 23:43:22 437.345 MHz
SO-50 25 Jul 00:12:30 00:16:18 24° 248° (WSW) 00:20:09 436.795 FM
ISS 25 Jul 00:32:55 00:35:13 17° 130° (SE) 00:37:31 145.800 FM
UOSAT-12 25 Jul 00:58:16 01:03:01 79° 58° (ENE) 01:07:41 437.025 FM, 437.400 FM
RS-15 25 Jul 01:01:05 01:11:34 51° 249° (WSW) 01:22:27 29.354 - 29.394 USB, Beacon 29.352 USB
Sapphire 25 Jul 01:04:09 01:07:51 19° 105° (ESE) 01:11:34 437.095 MHz 1200 baud AX-25 AFSK
Lituanica SAT-1 25 Jul 01:05:37 01:07:02 16° 332° (NNW) 01:08:28 437.275 MHz beacon
AO-40 25 Jul 01:26:55 04:36:21 26° 127° (SE) 05:57:41 Beacon 2401.320
PCSat 25 Jul 01:36:27 01:41:28 41° 111° (ESE) 01:46:31 145.825 MHz
Oscar 19 25 Jul 01:39:46 01:42:55 16° 92° (E) 01:46:04 437.125 CW, 437.150 USB
Oscar 16 25 Jul 02:06:13 02:10:46 31° 97° (E) 02:15:19 437.025 USB, Beacon 2401.1428
ISS 25 Jul 02:08:25 02:11:40 48° 326° (NW) 02:14:57 145.800 FM
JAS-1B 25 Jul 02:13:07 02:18:30 17° 83° (E) 02:23:28 435.800 - 435.900 CW/SSB
ITAMSAT 1 25 Jul 02:18:33 02:21:54 17° 92° (E) 02:25:14 435.822 SSB
AO-Echo 25 Jul 02:31:20 02:35:26 24° 94° (E) 02:39:25 ?
AO-27 25 Jul 02:35:47 02:40:06 26° 95° (E) 02:44:23 436.795 MHz FM
Uribyol 2 25 Jul 02:38:19 02:42:46 29° 96° (E) 02:47:11 436.500 FM
UOSAT-12 25 Jul 02:41:20 02:42:28 11° 254° (WSW) 02:43:37 437.025 FM, 437.400 FM
Sapphire 25 Jul 02:45:30 02:50:47 56° 302° (WNW) 02:56:08 437.095 MHz 1200 baud AX-25 AFSK
Oscar 19 25 Jul 03:17:32 03:22:35 57° 287° (WNW) 03:27:38 437.125 CW, 437.150 USB
PCSat 25 Jul 03:20:21 03:24:59 28° 309° (NW) 03:29:39 145.825 MHz
Oscar 16 25 Jul 03:45:36 03:50:02 30° 292° (WNW) 03:54:29 437.025 USB, Beacon 2401.1428
ISS 25 Jul 03:47:18 03:49:02 13° 345° (NNW) 03:50:48 145.800 FM
TMSAT-1 25 Jul 03:50:28 03:55:25 39° 98° (E) 04:00:21 436.925 FM
ITAMSAT 1 25 Jul 03:56:40 04:01:42 53° 288° (WNW) 04:06:43 435.822 SSB
JAS-1B 25 Jul 04:00:51 04:10:31 83° 104° (ESE) 04:18:49 435.800 - 435.900 CW/SSB
OPAL 25 Jul 04:03:53 04:08:47 65° 72° (ENE) 04:13:41 ?
AO-Echo 25 Jul 04:09:35 04:14:17 37° 291° (WNW) 04:18:49 ?
Gurwin Techsat 1B 25 Jul 04:11:41 04:17:02 87° 104° (ESE) 04:22:20 435.225 FM
AO-27 25 Jul 04:14:57 04:19:39 36° 291° (WNW) 04:24:19 436.795 MHz FM
Uribyol 2 25 Jul 04:17:40 04:22:13 32° 292° (WNW) 04:26:45 436.500 FM
Uosat F 25 Jul 04:24:51 04:28:11 18° 93° (E) 04:31:30 435.120 FM
AO-7 25 Jul 04:59:09 05:06:54 41° 99° (E) 05:14:33 29.400 - 29.500 MHz
ISS 25 Jul 05:26:16 05:26:58 11° 6° (N) 05:27:39 145.800 FM
TMSAT-1 25 Jul 05:30:52 05:35:06 25° 294° (WNW) 05:39:20 436.925 FM
OPAL 25 Jul 05:45:50 05:48:05 13° 267° (W) 05:50:21 ?
Lituanica SAT-1 25 Jul 05:46:07 05:47:37 17° 29° (NNE) 05:49:07 437.275 MHz beacon
JAS-1B 25 Jul 05:52:30 05:59:45 25° 305° (NW) 06:06:25 435.800 - 435.900 CW/SSB
Gurwin Techsat 1B 25 Jul 05:54:14 05:56:13 12° 300° (WNW) 05:58:12 435.225 FM
Uosat F 25 Jul 06:02:23 06:07:14 50° 289° (WNW) 06:12:02 435.120 FM
KITSAT 1 25 Jul 06:18:11 06:24:39 27° 105° (ESE) 06:31:07 435.175 FM
STRAND 1 25 Jul 06:20:20 06:24:47 30° 68° (ENE) 06:29:14 ?
Hamsat 25 Jul 06:28:20 06:31:51 24° 95° (E) 06:35:21 145.90 MHz
AO-7 25 Jul 06:51:55 06:59:39 44° 297° (WNW) 07:07:21 29.400 - 29.500 MHz
ISS 25 Jul 07:01:53 07:04:40 23° 26° (NNE) 07:07:25 145.800 FM
JAS-2 25 Jul 07:11:54 07:17:51 51° 98° (E) 07:23:10 435.800 - 435.900 CW/SSB, 435.910 FM
Lituanica SAT-1 25 Jul 07:18:34 07:20:15 21° 225° (SW) 07:21:55 437.275 MHz beacon
PANSAT 25 Jul 07:31:23 07:33:15 13° 169° (S) 07:35:07 not established
MaSat-1 25 Jul 07:54:20 07:59:34 53° 61° (ENE) 08:04:34 437.345 MHz
STRAND 1 25 Jul 07:59:22 08:03:53 31° 263° (W) 08:08:25 ?
Hamsat 25 Jul 08:04:08 08:07:45 27° 290° (WNW) 08:11:23 145.90 MHz
KITSAT 1 25 Jul 08:11:24 08:19:25 65° 303° (WNW) 08:27:29 435.175 FM
SO-67 25 Jul 08:16:42 08:20:11 68° 101° (E) 08:23:37 435.3500 MHz FM
ISS 25 Jul 08:38:17 08:41:33 49° 223° (SW) 08:44:48 145.800 FM
Saudisat 1A 25 Jul 08:55:32 08:59:53 63° 118° (ESE) 09:04:16 436.775 MHz
JAS-2 25 Jul 08:57:51 09:02:25 22° 299° (WNW) 09:06:38 435.800 - 435.900 CW/SSB, 435.910 FM
PANSAT 25 Jul 09:10:17 09:12:46 16° 182° (S) 09:15:14 not established
MaSat-1 25 Jul 09:32:47 09:36:28 19° 259° (WSW) 09:40:02 437.345 MHz
Sapphire 25 Jul 09:52:31 09:55:42 16° 44° (NE) 09:58:52 437.095 MHz 1200 baud AX-25 AFSK
